This is the latest recevied weather packets stored in our database for station/object AC4DE-1. If no packets are shown the sender has not sent any weather packets the latest 10 day(s).
| Time | Temp. | Humidity | Pressure | Rain* | Wind** | Luminosity | Snow |
|---|---|---|---|---|---|---|---|
| 1777582415 | 18.89° C | 43% | 1015.5 hPa | 0 mm | - | - | - |
| 1777581512 | 18.89° C | 43% | 1015.6 hPa | 0 mm | - | - | - |
| 1777580611 | 18.89° C | 44% | 1015.6 hPa | 0 mm | - | - | - |
| 1777578204 | 18.33° C | 46% | 1016.2 hPa | 0 mm | - | - | - |
| 1777577904 | 18.33° C | 42% | 1016.1 hPa | 0 mm | - | - | - |
| 1777577057 | 18.33° C | 46% | 1016.1 hPa | 0 mm | - | - | - |
| 1777576487 | 18.33° C | 50% | 1016.2 hPa | 0 mm | - | - | - |
| 1777575802 | 17.78° C | 45% | 1016.2 hPa | 0 mm | - | - | - |
| 1777575502 | 18.33° C | 46% | 1016.2 hPa | 0 mm | - | - | - |
| 1777572546 | 18.33° C | 46% | 1016.3 hPa | 0 mm | - | - | - |
| 1777572496 | 18.33° C | 46% | 1016.3 hPa | 0 mm | - | - | - |
| 1777570448 | 17.78° C | 45% | 1016.3 hPa | 0 mm | - | - | - |
| 1777569490 | 18.33° C | 44% | 1016.2 hPa | 0 mm | - | - | - |
| 1777559254 | 14.44° C | 45% | 1016.7 hPa | 0 mm | - | - | - |
| 1777558353 | 13.89° C | 49% | 1016.6 hPa | 0 mm | - | - | - |
| 1777554431 | 11.67° C | 65% | 1016.8 hPa | 0 mm | - | - | - |
| 1777554127 | 11.67° C | 67% | 1016.8 hPa | 0 mm | - | - | - |
| 1777551751 | 10.56° C | 75% | 1016.4 hPa | 0 mm | - | - | - |
| 1777551402 | 10.56° C | 75% | 1016.4 hPa | 0 mm | - | - | - |
| 1777549638 | 10.56° C | 77% | 1015.9 hPa | 0 mm | - | - | - |
| 1777549599 | 10.56° C | 77% | 1015.9 hPa | 0 mm | - | - | - |
| 1777547487 | 10.56° C | 76% | 1015.3 hPa | 0 mm | - | - | - |
| 1777547187 | 10.56° C | 77% | 1015.3 hPa | 0 mm | - | - | - |
| 1777545378 | 11.11° C | 77% | 1015.1 hPa | 0 mm | - | - | - |
| 1777545077 | 11.11° C | 78% | 1015.1 hPa | 0 mm | - | - | - |
* Rain latest hour (hover to see other rain measurements)
** Current wind speed in m/s (hover to see current wind gust speed)